Location: Unspecified
(0.0000°N, 0.0000°E)
Time: 09:46:37
(UTC+00:00)

JUGNU - Visible Passes

Search period start: 18 January 2019 00:00
Search period end: 28 January 2019 00:00
Orbit: 836 x 864 km, 20.0° (Epoch: 17 January)

Date Brightness Start Highest point End Pass type
(mag) Time Alt. Az. Time Alt. Az. Time Alt. Az.
18 Jan ? 03:20:48 21° E 03:20:48 21° E 03:22:40 10° ENE visible
18 Jan ? 05:02:42 24° WNW 05:05:50 43° NNW 05:11:23 10° NE visible
18 Jan ? 19:39:50 10° SW 19:42:30 13° S 19:45:11 10° SSE visible
19 Jan ? 03:07:16 11° ENE 03:07:16 11° ENE 03:07:35 10° ENE visible
19 Jan ? 04:49:11 33° NW 04:50:43 38° NNW 04:56:10 10° NE visible
19 Jan ? 19:25:09 10° SSW 19:27:29 12° S 19:29:49 10° SSE visible
20 Jan ? 04:35:35 34° NNW 04:35:36 34° NNW 04:40:56 10° NE visible
20 Jan ? 19:10:30 10° SSW 19:12:28 12° S 19:14:26 10° SSE visible
20 Jan ? 21:02:03 10° S 21:02:04 10° S 21:02:04 10° S visible
21 Jan ? 04:21:53 28° N 04:21:53 28° N 04:25:41 10° NE visible
21 Jan ? 18:55:54 10° SSW 18:57:28 11° S 18:59:01 10° S visible
21 Jan ? 20:46:38 10° S 20:47:42 10° S 20:47:51 10° S visible
22 Jan ? 04:08:08 20° NNE 04:08:08 20° NNE 04:10:26 10° NE visible
22 Jan ? 18:41:21 10° SSW 18:42:28 10° S 18:43:34 10° S visible
22 Jan ? 20:31:14 10° S 20:32:42 11° S 20:33:35 10° SSE visible
23 Jan ? 03:54:18 13° NNE 03:54:18 13° NNE 03:55:09 10° NE visible
23 Jan ? 05:37:32 10° NW 05:40:00 13° N 05:42:28 10° NNE visible
23 Jan ? 20:15:53 10° S 20:17:40 11° S 20:19:18 10° SSE visible
24 Jan ? 05:22:51 10° NNW 05:24:59 12° N 05:27:06 10° NNE visible
24 Jan ? 20:00:32 10° SSW 20:02:40 12° S 20:04:49 10° SSE visible
25 Jan ? 05:08:17 10° NNW 05:09:58 11° N 05:11:44 10° N visible
25 Jan ? 19:45:11 10° SSW 19:47:39 13° S 19:50:07 10° SE visible
26 Jan ? 04:54:15 11° NNW 04:54:58 11° N 04:56:21 10° N visible
26 Jan ? 19:29:51 10° SSW 19:32:37 13° S 19:35:24 10° SE visible
26 Jan ? 21:17:17 10° SW 21:18:16 14° SSW 21:18:16 14° SSW visible
27 Jan ? 04:40:11 10° N 04:40:11 10° N 04:40:56 10° N visible
27 Jan ? 19:14:31 10° SSW 19:17:36 14° SSE 19:20:40 10° SE visible
27 Jan ? 21:02:01 10° SW 21:03:59 19° SSW 21:03:59 19° SSW visible
